Flag for China Weather past 2 weeks in Lanzhou, Gansu, China

Now
34 °F

Clear.


Feels Like: 31 °F
Forecast: 43 / 66 °F
Wind: 3 mph from North

Location: Lanzhou / Zhongchuan

Current Time: Oct 23, 2014 at 8:55:04 AM

Latest Report: Oct 23, 2014 at 8:00 AM


Visibility: 4 mi

Pressure: 30.24 "Hg

Humidity: 87%

Dew point: 30 °F

Location of LanzhouLocation

Historic Weather in Lanzhou — Graph

°F

Lanzhou temperature yesterday

Maximum temperature yesterday: 63 °F (at 2:00 PM)
Minimum temperature yesterday: 39 °F (at 12:00 AM)
Average temperature yesterday: 48 °F

Past Weeks' High & Low Weather Summary

 TemperatureHumidityPressure
High70 °F (Oct 8, 3:00 PM)100% (Oct 9, 4:00 AM)30.60 "Hg (Oct 9, 4:00 AM)
Low30 °F (Oct 11, 6:00 AM)22% (Oct 22, 2:00 PM)29.92 "Hg (Oct 9, 4:00 PM)
Average45 °F73%30.26 "Hg
* Reported Oct 8 7:00 AM — Oct 23 7:00 AM, Lanzhou, Weather by CustomWeather, © 2014

Note: Actual official high and low records may vary slightly from our data, if they occured in-between our weather recording intervals... More about our weather records

Advertising

Lanzhou weather history for previous 24 hours

 ConditionsComfort  
Time TempWeatherWind HumidityBarometerVisibility
7:00 AM
Oct 23
32 °FClear.6 mph87%30.24 "Hg4 mi
6:00 AM32 °FClear.3 mph87%30.24 "Hg4 mi
5:00 AM34 °FClear.6 mph87%30.24 "Hg10 mi
4:00 AM34 °FClear.6 mph87%30.24 "Hg10 mi
3:00 AM37 °FPassing clouds.3 mph75%30.27 "HgN/A
2:00 AM37 °FClear.3 mph81%30.27 "Hg10 mi
1:00 AM37 °FClear.6 mph81%30.27 "Hg10 mi
12:00 AM39 °FClear.6 mph75%30.30 "Hg10 mi
11:00 PM
Oct 22
39 °FClear.6 mph81%30.30 "Hg5 mi
10:00 PM41 °FClear.6 mph81%30.30 "Hg5 mi
9:00 PM41 °FClear.6 mph81%30.30 "Hg5 mi
8:00 PM45 °FClear.3 mph71%30.30 "Hg10 mi
7:00 PM50 °FSunny.1 mph54%30.27 "Hg10 mi
6:00 PM57 °FSunny.3 mph33%30.24 "Hg10 mi
5:00 PM61 °FPassing clouds.6 mph27%30.24 "HgN/A
4:00 PM61 °FSunny.8 mph25%30.24 "Hg10 mi
3:00 PM63 °FPassing clouds.8 mph22%30.27 "HgN/A
2:00 PM63 °FScattered clouds.8 mph22%30.30 "HgN/A
1:00 PM61 °FPassing clouds.13 mph31%30.33 "HgN/A
12:00 PM57 °FScattered clouds.8 mph36%30.33 "HgN/A
11:00 AM57 °FScattered clouds.3 mph39%30.36 "HgN/A
10:00 AM54 °FSunny.1 mph35%30.36 "Hg10 mi
9:00 AM48 °FSunny.3 mph54%30.36 "Hg10 mi
8:00 AM43 °FClear.6 mph57%30.33 "Hg10 mi
Weather by CustomWeather, © 2014

See weather overviewHow to use our weather pages